Regional Weather Roundup
Issued by NWS Upton, NY

Current Version | Previous Version | Text Only | Print | Product List | Glossary Off
Versions: 1 2 3 4 5 6 7 8 9 10 11 12 13 14 15 16 17 18 19 20 21 22 23 24 25 26 27 28 29 30 31 32 33 34 35 36 37 38 39 40 41 42 43 44 45 46 47 48 49 50
684 ASUS41 KOKX 260509 RWROKX REGIONAL WEATHER ROUNDUP NATIONAL WEATHER SERVICE NEW YORK NY 100 AM EDT WED APR 26 2017 NOTE: "FAIR" INDICATES FEW OR NO CLOUDS BELOW 12,000 FEET WITH NO SIGNIFICANT WEATHER AND/OR OBSTRUCTIONS TO VISIBILITY. NYZ071-072-176-178-NJZ106-104-260600- NEW YORK CITY METRO AREA CITY SKY/WX TMP DP RH WIND PRES REMARKS Central Park CLOUDY 53 52 96 E9G17 29.84F FOG Wall St Helipt CLOUDY 54 52 94 NE20G30 29.81F Bronx Bot Gard N/A 52 52 100 E9 29.83F LaGuardia APRT CLOUDY 53 50 89 NE25G32 29.81F FOG Kennedy INTL CLOUDY 56 55 97 NE15 29.80F Breezy Point N/A 52 N/A N/A N9G15 N/A Newark/Liberty LGT RAIN 53 53 100 NE15 29.80F FOG Teterboro DRIZZLE 55 54 96 NE13G21 29.81F FOG $$ NYZ177-179-078>081-260600- LONG ISLAND NEW YORK CITY SKY/WX TMP DP RH WIND PRES REMARKS Jones Beach N/A 54 N/A N/A NE23 N/A Matinecock PT NOT AVBL Farmingdale CLOUDY 58 57 97 NE16G22 29.80F MacArthur/ISP CLOUDY 58 57 97 E15G24 29.80F Shirley CLOUDY 57 56 96 VRB6 29.82F Mt Sinai Harb N/A N/A N/A N/A E10 N/A Westhampton LGT RAIN 55 54 96 E17G24 29.83F East Hampton CLOUDY 55 54 97 E16G26 29.85F Montauk NOT AVBL $$ NYZ052-065-067-260600- HUDSON VALLEY CITY SKY/WX TMP DP RH WIND PRES REMARKS White Plains LGT RAIN 54 52 93 NE15G21 29.83F Larchmont Harb N/A 52 N/A N/A NE23 N/A Croton O-T Hud N/A 52 N/A N/A N3 N/A Newburgh LGT RAIN 50 50 100 E6 29.90F FOG Montgomery LGT RAIN 51 49 92 NE12 29.88F FOG Poughkeepsie CLOUDY 50 49 96 N5 29.89F Albany LGT RAIN 50 48 93 N7 29.96F $$ NJZ001-105-106-008-010-013-015-019>022-104-260600- NEW JERSEY CITY SKY/WX TMP DP RH WIND PRES REMARKS Newark/Liberty LGT RAIN 53 53 100 NE15 29.80F FOG Teterboro DRIZZLE 55 54 96 NE13G21 29.81F FOG Caldwell CLOUDY 53 53 100 NE9 29.82F FOG Somerville CLOUDY 55 53 93 NE7 29.77F Linden CLOUDY 54 52 94 NE13G20 29.80F FOG Sussex CLOUDY 51 50 96 NE8 29.86F FOG Andover N/A 50 49 96 N10G17 29.84F Trenton NOT AVBL Millville LGT RAIN 57 57 100 NE7 29.69S FOG Atlantic City CLOUDY 59 57 93 E14 29.70R FOG Wrightstown CLOUDY 55 54 97 NE10 29.73S FOG Toms River LGT RAIN 55 55 100 NE10 29.75F VSB 3/4 Belmar FOG 53 53 100 NE9 29.78S VSB 1 $$ PAZ047>061-062-071-260600- EASTERN PENNSYLVANIA CITY SKY/WX TMP DP RH WIND PRES REMARKS Philadelphia LGT RAIN 56 54 93 NE22G28 29.72F Allentown LGT RAIN 54 50 86 NE14G23 29.80F Scranton CLOUDY 54 50 86 NE10 29.83S $$ CTZ002-004>006-009-010-012-RIZ004-006-007-MAZ004-011-015-260600- SOUTHERN NEW ENGLAND IN CT CITY SKY/WX TMP DP RH WIND PRES REMARKS Bradley INTL LGT RAIN 48 47 96 N13 29.97F Hartford LGT RAIN 49 48 97 N8 29.96F FOG Danbury LGT RAIN 49 49 100 NE10 29.90F FOG Wtrbury/Oxford CLOUDY 48 45 87 NE13G21 29.91F Bridgeport LGT RAIN 55 51 86 NE14 29.87F Meriden RAIN 50 48 93 NE12G24 29.93F FOG New Haven CLOUDY 53 52 96 N7 29.89F Chester LGT RAIN 52 52 100 NE7 29.90F Groton RAIN 57 56 96 NE14 29.90F FOG Wilimantic LGT RAIN 52 50 93 NE6 29.96F FOG IN RI CITY SKY/WX TMP DP RH WIND PRES REMARKS Providence LGT RAIN 51 51 100 N9 29.99F FOG Block Island NOT AVBL Westerly LGT RAIN 57 56 96 NE12 29.93F FOG IN MA CITY SKY/WX TMP DP RH WIND PRES REMARKS Boston RAIN 47 47 100 N7 30.05F FOG Worcester LGT RAIN 43 41 93 NE13 30.01F VSB 3/4 Westfield RAIN 47 47 100 N12 29.98F FOG Provincetown CLOUDY 53 53 100 SE16G24 30.01F Nantucket FOG 52 51 97 E21 29.97F VSB 3/4 $$ ANZ330-335-338-340-345-350-353-355-260600- COASTAL MARINE OBSERVATIONS STATION/POSITION TIME SKY/WX TEMP WIND PRES VSBY WAVE AIR SEA DIR/SP/G HT/PER (UTC) (F) (DEG/KT/KT) (MB) (MI) (FT/S) NY HARB ENTRANCE 0350 51 48 60/ 17/ 21 1008.5 10/12 20 S FIRE ISLAND 0450 53 47 100/ 21/ 27 1005.6 11/11 GREAT SOUTH BAY 0415 53 55 70/ 19/ 23 N/A 23 SSW MONTAUK P 0350 50 45 1011.6 11/10 15 E BARNEGAT LI 0430 49 N/A 10/11 HUDSON CANYON 0350 54 47 90/ 19/ 23 1006.7 15/11 KINGS POINT 0448 52 48 90/ 10/ 15 1009.3 EXECUTION ROCKS NOT AVBL CENTRAL LI SOUND 0400 50 80/ 19/ 23 N/A 3/ 4 EASTERN LI SOUND NOT AVBL ROBBINS REEF 0448 53 50/ 22/ 25 1008.8 $$ >>>>>>>>>>>>>>>>>>>>>>>>>>>> KEY <<<<<<<<<<<<<<<<<<<<<<<<<<< > < > SKY/WX - Sky Condition/Present Weather < > TMP - Temperature in Fahrenheit < > DP - Dew Point in Fahrenheit < > RH - Relative Humidity in Percent < > WIND - Direction (from) and Speed in MPH < > PRES - Mean Sea Level Pressure (inches of Hg) < > WCI - Wind Chill Index < > VSB - VISIBILITY IN MILES < > HX - HEAT INDEX < > TC - TEMPERATURE IN CELSIUS < > VRB - VARIABLE WIND DIRECTION < > < >>>>>>>>>>>>>>>>>>>>>>>>>>>> KEY <<<<<<<<<<<<<<<<<<<<<<<<<<<

USA.gov is the U.S. government's official web portal to all federal, state and local government web resources and services.